WZZ325 LHBP-EPKK

Flight info

Callsign WZZ325
Flight time 0h 38m
Altitude 22000
Route LITKU Y301 KALIF DCT MEBAN
Aircraft A21N/M-SDE1E2E3FGIJ1J4RWXY/LB1

Departure

Time 2026-05-07 18:27
Airport Budapest Liszt Ferenc International Airport (LHBP)

Arrival

Time 2026-05-07 19:06
Airport Kraków John Paul II International Airport (EPKK)
Time Latitude Longitude Altitude Speed Heading
2026-05-07 17:45 47.43511 19.26479 463 ft 0 kts 222°
2026-05-07 18:16 47.43514 19.26483 463 ft 3 kts 222°
2026-05-07 18:16 47.43531 19.26506 463 ft 4 kts 232°
2026-05-07 18:16 47.43538 19.26537 463 ft 4 kts 284°
2026-05-07 18:16 47.43527 19.26572 463 ft 4 kts 307°
2026-05-07 18:17 47.43509 19.26602 462 ft 3 kts 313°
2026-05-07 18:17 47.43507 19.26606 461 ft 0 kts 312°
2026-05-07 18:22 47.43518 19.26588 461 ft 6 kts 312°
2026-05-07 18:22 47.43546 19.26543 463 ft 8 kts 312°
2026-05-07 18:22 47.43587 19.26476 462 ft 10 kts 312°
2026-05-07 18:23 47.43639 19.26391 463 ft 12 kts 313°
2026-05-07 18:23 47.43678 19.26271 463 ft 14 kts 271°
2026-05-07 18:23 47.43675 19.26115 463 ft 16 kts 275°
2026-05-07 18:23 47.43713 19.26008 463 ft 10 kts 312°
2026-05-07 18:24 47.43732 19.25910 463 ft 12 kts 238°
2026-05-07 18:24 47.43665 19.25819 463 ft 14 kts 222°
2026-05-07 18:24 47.43587 19.25714 463 ft 16 kts 222°
2026-05-07 18:24 47.43499 19.25596 463 ft 18 kts 222°
2026-05-07 18:25 47.43402 19.25466 463 ft 20 kts 222°
2026-05-07 18:25 47.43300 19.25329 463 ft 19 kts 222°
2026-05-07 18:25 47.43201 19.25196 463 ft 16 kts 222°
2026-05-07 18:25 47.43159 19.25140 463 ft 1 kts 222°
2026-05-07 18:26 47.43150 19.25128 463 ft 3 kts 222°
2026-05-07 18:26 47.43127 19.25098 463 ft 6 kts 222°
2026-05-07 18:26 47.43087 19.25044 462 ft 9 kts 222°
2026-05-07 18:26 47.43088 19.24955 463 ft 8 kts 313°
2026-05-07 18:27 47.43165 19.24836 462 ft 46 kts 313°
2026-05-07 18:27 47.43622 19.24099 458 ft 148 kts 312°
2026-05-07 18:27 47.44458 19.22751 1065 ft 190 kts 313°
2026-05-07 18:27 47.45049 19.21782 2010 ft 192 kts 312°
2026-05-07 18:28 47.46289 19.19735 3045 ft 208 kts 312°
2026-05-07 18:28 47.47317 19.18070 3653 ft 229 kts 313°
2026-05-07 18:28 47.48431 19.16295 4414 ft 244 kts 316°
2026-05-07 18:28 47.49959 19.15019 5032 ft 264 kts 343°
2026-05-07 18:29 47.51158 19.14648 5572 ft 269 kts 349°
2026-05-07 18:29 47.53048 19.14454 6425 ft 277 kts
2026-05-07 18:29 47.54855 19.15439 7304 ft 282 kts 32°
2026-05-07 18:29 47.56998 19.17752 8498 ft 288 kts 37°
2026-05-07 18:30 47.58062 19.18947 9072 ft 290 kts 37°
2026-05-07 18:30 47.59689 19.20735 9865 ft 294 kts 36°
2026-05-07 18:30 47.61369 19.22545 10479 ft 307 kts 35°
2026-05-07 18:30 47.63156 19.24449 10924 ft 325 kts 35°
2026-05-07 18:31 47.65038 19.26433 11610 ft 335 kts 35°
2026-05-07 18:31 47.66949 19.28442 12429 ft 339 kts 36°
2026-05-07 18:31 47.68867 19.30480 13224 ft 342 kts 35°
2026-05-07 18:31 47.70771 19.32634 13974 ft 347 kts 41°
2026-05-07 18:32 47.72551 19.35090 14734 ft 351 kts 43°
2026-05-07 18:32 47.74334 19.37586 15456 ft 355 kts 43°
2026-05-07 18:32 47.76138 19.40113 16167 ft 359 kts 43°
2026-05-07 18:32 47.77968 19.42685 16862 ft 364 kts 44°
2026-05-07 18:33 47.79818 19.45281 17551 ft 368 kts 43°
2026-05-07 18:33 47.81868 19.47577 18205 ft 372 kts 28°
2026-05-07 18:33 47.84308 19.48862 18854 ft 375 kts 11°
2026-05-07 18:33 47.86891 19.49579 19488 ft 379 kts
2026-05-07 18:34 47.89503 19.50249 20097 ft 383 kts
2026-05-07 18:34 47.92139 19.50956 20708 ft 387 kts
2026-05-07 18:34 47.94808 19.51697 21298 ft 391 kts
2026-05-07 18:34 47.97499 19.52459 21875 ft 396 kts 10°
2026-05-07 18:35 48.00215 19.53244 22424 ft 399 kts 11°
2026-05-07 18:35 48.02958 19.54038 22872 ft 404 kts 10°
2026-05-07 18:35 48.05714 19.54841 23033 ft 397 kts 10°
2026-05-07 18:35 48.08359 19.55608 23033 ft 380 kts 10°
2026-05-07 18:36 48.10945 19.56354 23031 ft 378 kts 10°
2026-05-07 18:36 48.13523 19.57097 23018 ft 378 kts 10°
2026-05-07 18:36 48.16109 19.57840 23015 ft 378 kts 10°
2026-05-07 18:36 48.18690 19.58588 23011 ft 378 kts 10°
2026-05-07 18:37 48.21271 19.59335 23012 ft 378 kts
2026-05-07 18:37 48.23873 19.59767 23007 ft 376 kts 358°
2026-05-07 18:37 48.26488 19.59595 23011 ft 376 kts 354°
2026-05-07 18:37 48.29096 19.59316 23011 ft 376 kts 354°
2026-05-07 18:38 48.31712 19.59034 23011 ft 376 kts 354°
2026-05-07 18:38 48.34325 19.58768 23009 ft 376 kts 355°
2026-05-07 18:38 48.36939 19.58517 23011 ft 376 kts 355°
2026-05-07 18:38 48.39512 19.58267 23012 ft 377 kts 355°
2026-05-07 18:39 48.42130 19.58012 23011 ft 376 kts 355°
2026-05-07 18:39 48.44777 19.57758 23009 ft 377 kts 355°
2026-05-07 18:39 48.47358 19.57511 23008 ft 377 kts 355°
2026-05-07 18:39 48.49972 19.57272 23008 ft 377 kts 356°
2026-05-07 18:40 48.52592 19.57331 23008 ft 377 kts
2026-05-07 18:40 48.55217 19.57529 23006 ft 377 kts
2026-05-07 18:40 48.57834 19.57739 23009 ft 377 kts
2026-05-07 18:40 48.60456 19.57944 23009 ft 377 kts
2026-05-07 18:41 48.63072 19.58146 23010 ft 377 kts
2026-05-07 18:41 48.65697 19.58351 23009 ft 377 kts
2026-05-07 18:41 48.68317 19.58555 23011 ft 377 kts
2026-05-07 18:41 48.70941 19.58757 23011 ft 377 kts
2026-05-07 18:42 48.73562 19.58962 23008 ft 377 kts
2026-05-07 18:42 48.76180 19.59167 23003 ft 377 kts
2026-05-07 18:42 48.78803 19.59368 23008 ft 377 kts
2026-05-07 18:42 48.81424 19.59571 23008 ft 378 kts
2026-05-07 18:43 48.84049 19.59778 23009 ft 378 kts
2026-05-07 18:43 48.86671 19.59983 23008 ft 378 kts
2026-05-07 18:43 48.89296 19.60191 23008 ft 378 kts
2026-05-07 18:43 48.91922 19.60399 23011 ft 378 kts
2026-05-07 18:44 48.94543 19.60607 23007 ft 378 kts
2026-05-07 18:44 48.97172 19.60813 23004 ft 377 kts
2026-05-07 18:44 48.99796 19.61019 23012 ft 378 kts
2026-05-07 18:44 49.02390 19.61225 22799 ft 369 kts
2026-05-07 18:45 49.04947 19.61429 22581 ft 367 kts
2026-05-07 18:45 49.07489 19.61633 22352 ft 365 kts
2026-05-07 18:45 49.09993 19.61832 22102 ft 364 kts
2026-05-07 18:45 49.12513 19.62031 21847 ft 362 kts
2026-05-07 18:46 49.15028 19.62231 21613 ft 361 kts
2026-05-07 18:46 49.17529 19.62429 21363 ft 359 kts
2026-05-07 18:46 49.20013 19.62627 21055 ft 357 kts
2026-05-07 18:46 49.22478 19.62823 20670 ft 352 kts
2026-05-07 18:47 49.24906 19.63015 20258 ft 347 kts
2026-05-07 18:47 49.27305 19.63209 19857 ft 342 kts
2026-05-07 18:47 49.29668 19.63402 19456 ft 338 kts
2026-05-07 18:47 49.32008 19.63584 19056 ft 334 kts
2026-05-07 18:48 49.34320 19.63766 18664 ft 331 kts
2026-05-07 18:48 49.36598 19.63949 18283 ft 326 kts
2026-05-07 18:48 49.38854 19.64131 17919 ft 321 kts
2026-05-07 18:48 49.41066 19.64306 17562 ft 317 kts
2026-05-07 18:49 49.43256 19.64493 17205 ft 313 kts
2026-05-07 18:49 49.45361 19.65206 16846 ft 309 kts 24°
2026-05-07 18:49 49.47126 19.67056 16514 ft 309 kts 45°
2026-05-07 18:49 49.48597 19.69451 16201 ft 307 kts 49°
2026-05-07 18:50 49.50023 19.71878 15877 ft 305 kts 48°
2026-05-07 18:50 49.51460 19.74277 15557 ft 304 kts 48°
2026-05-07 18:50 49.52895 19.76644 15229 ft 301 kts 47°
2026-05-07 18:50 49.54322 19.78987 14890 ft 300 kts 47°
2026-05-07 18:51 49.55744 19.81316 14534 ft 298 kts 47°
2026-05-07 18:51 49.57162 19.83635 14193 ft 296 kts 47°
2026-05-07 18:51 49.58573 19.85942 13863 ft 295 kts 47°
2026-05-07 18:51 49.59971 19.88233 13539 ft 293 kts 47°
2026-05-07 18:52 49.61363 19.90514 13215 ft 290 kts 47°
2026-05-07 18:52 49.62739 19.92768 12861 ft 287 kts 47°
2026-05-07 18:52 49.64103 19.95004 12547 ft 285 kts 47°
2026-05-07 18:52 49.65459 19.97228 12217 ft 284 kts 47°
2026-05-07 18:53 49.66806 19.99442 11885 ft 282 kts 47°
2026-05-07 18:53 49.68143 20.01640 11561 ft 280 kts 47°
2026-05-07 18:53 49.69474 20.03833 11230 ft 279 kts 47°
2026-05-07 18:53 49.70796 20.06010 10916 ft 277 kts 47°
2026-05-07 18:54 49.72282 20.07872 10625 ft 275 kts 26°
2026-05-07 18:54 49.74107 20.08660 10363 ft 273 kts
2026-05-07 18:54 49.75979 20.08370 10115 ft 270 kts 346°
2026-05-07 18:54 49.77792 20.07638 9883 ft 268 kts 344°
2026-05-07 18:55 49.79591 20.06887 9717 ft 268 kts 344°
2026-05-07 18:55 49.81391 20.06169 9577 ft 267 kts 345°
2026-05-07 18:55 49.83186 20.05471 9448 ft 266 kts 345°
2026-05-07 18:55 49.84980 20.04785 9262 ft 265 kts 345°
2026-05-07 18:56 49.86760 20.04112 8993 ft 263 kts 345°
2026-05-07 18:56 49.88533 20.03447 8684 ft 261 kts 346°
2026-05-07 18:56 49.90291 20.02790 8365 ft 260 kts 346°
2026-05-07 18:56 49.92043 20.02142 8040 ft 258 kts 347°
2026-05-07 18:57 49.93798 20.01589 7784 ft 257 kts 348°
2026-05-07 18:57 49.95554 20.01075 7604 ft 256 kts 348°
2026-05-07 18:57 49.97307 20.00568 7448 ft 256 kts 348°
2026-05-07 18:57 49.99055 20.00091 7292 ft 255 kts 353°
2026-05-07 18:58 50.00780 20.00429 7091 ft 249 kts 24°
2026-05-07 18:58 50.02060 20.02142 6829 ft 246 kts 59°
2026-05-07 18:58 50.02594 20.04669 6679 ft 248 kts 79°
2026-05-07 18:58 50.02883 20.07306 6548 ft 247 kts 79°
2026-05-07 18:59 50.03180 20.09936 6420 ft 247 kts 79°
2026-05-07 18:59 50.03495 20.12517 6282 ft 246 kts 76°
2026-05-07 18:59 50.04219 20.14913 5865 ft 244 kts 49°
2026-05-07 18:59 50.05554 20.16483 5488 ft 238 kts 22°
2026-05-07 19:00 50.07133 20.16990 5193 ft 231 kts 357°
2026-05-07 19:00 50.08649 20.16455 4888 ft 223 kts 333°
2026-05-07 19:00 50.09858 20.15067 4670 ft 212 kts 310°
2026-05-07 19:00 50.10646 20.13168 4413 ft 204 kts 297°
2026-05-07 19:01 50.11285 20.11218 4091 ft 201 kts 297°
2026-05-07 19:01 50.11831 20.09215 3978 ft 201 kts 282°
2026-05-07 19:01 50.11807 20.07054 3775 ft 199 kts 258°
2026-05-07 19:01 50.11478 20.05014 3499 ft 192 kts 256°
2026-05-07 19:02 50.11171 20.03024 3152 ft 185 kts 258°
2026-05-07 19:02 50.10900 20.01155 3005 ft 168 kts 258°
2026-05-07 19:02 50.10664 19.99472 2949 ft 154 kts 259°
2026-05-07 19:02 50.10443 19.97843 2999 ft 154 kts 258°
2026-05-07 19:03 50.10230 19.96278 2950 ft 140 kts 260°
2026-05-07 19:03 50.10024 19.94839 2756 ft 135 kts 258°
2026-05-07 19:03 50.09821 19.93412 2556 ft 135 kts 258°
2026-05-07 19:03 50.09640 19.91986 2373 ft 135 kts 258°
2026-05-07 19:04 50.09440 19.90567 2190 ft 134 kts 258°
2026-05-07 19:04 50.09243 19.89137 2003 ft 135 kts 258°
2026-05-07 19:04 50.09042 19.87717 1816 ft 134 kts 258°
2026-05-07 19:04 50.08842 19.86282 1626 ft 136 kts 258°
2026-05-07 19:05 50.08649 19.84843 1445 ft 135 kts 259°
2026-05-07 19:05 50.08459 19.83408 1259 ft 135 kts 258°
2026-05-07 19:05 50.08259 19.81981 1092 ft 135 kts 258°
2026-05-07 19:05 50.08064 19.80556 928 ft 134 kts 258°
2026-05-07 19:06 50.07871 19.79166 806 ft 118 kts 258°
2026-05-07 19:06 50.07671 19.77762 803 ft 45 kts 258°
2026-05-07 19:06 50.07603 19.77268 807 ft 47 kts 257°
2026-05-07 19:07 50.07542 19.76929 808 ft 17 kts 248°
2026-05-07 19:07 50.07446 19.76855 806 ft 19 kts 163°
2026-05-07 19:07 50.07359 19.76890 805 ft 0 kts 165°
2026-05-07 19:08 50.07352 19.76893 805 ft 4 kts 165°
2026-05-07 19:08 50.07309 19.76945 805 ft 11 kts 104°
2026-05-07 19:08 50.07324 19.77076 805 ft 14 kts 76°
2026-05-07 19:09 50.07346 19.77232 805 ft 16 kts 78°
2026-05-07 19:09 50.07371 19.77411 805 ft 18 kts 77°
2026-05-07 19:09 50.07399 19.77609 805 ft 20 kts 77°
2026-05-07 19:09 50.07430 19.77828 805 ft 22 kts 78°
2026-05-07 19:10 50.07461 19.78067 805 ft 23 kts 79°
2026-05-07 19:10 50.07493 19.78291 805 ft 17 kts 78°
2026-05-07 19:10 50.07517 19.78458 805 ft 14 kts 77°
2026-05-07 19:10 50.07535 19.78592 805 ft 11 kts 78°
2026-05-07 19:11 50.07552 19.78720 805 ft 13 kts 78°
2026-05-07 19:11 50.07574 19.78872 805 ft 16 kts 77°
2026-05-07 19:11 50.07599 19.79047 805 ft 18 kts 78°
2026-05-07 19:11 50.07622 19.79216 805 ft 13 kts 78°
2026-05-07 19:12 50.07644 19.79369 805 ft 16 kts 78°
2026-05-07 19:12 50.07665 19.79528 805 ft 13 kts 78°
2026-05-07 19:12 50.07686 19.79682 805 ft 15 kts 78°
2026-05-07 19:12 50.07701 19.79787 805 ft 9 kts 77°
2026-05-07 19:13 50.07684 19.79874 805 ft 8 kts 147°
2026-05-07 19:13 50.07622 19.79895 805 ft 10 kts 170°
2026-05-07 19:13 50.07554 19.79915 805 ft 8 kts 169°
2026-05-07 19:13 50.07511 19.79952 805 ft 8 kts 112°
2026-05-07 19:14 50.07515 19.80018 805 ft 5 kts 76°
2026-05-07 19:14 50.07516 19.80026 805 ft 0 kts 76°
2026-05-07 19:15 50.07518 19.80040 805 ft 4 kts 84°
2026-05-07 19:15 50.07497 19.80072 805 ft 3 kts 165°
2026-05-07 19:15 50.07480 19.80077 805 ft 0 kts 168°